Home > Weather > Bellingham > Past weeks

Flag for USA Past Weather in Bellingham, Washington, USA — Yesterday and Last 2 Weeks

Now
57 °F

Clear.


Feels Like: 54 °F
Forecast: 58 / 75 °F
Wind: 12 mph from South

Location: Bellingham International Airport

Current Time: Jun 28, 2016 at 4:43:27 AM

Latest Report: Jun 28, 2016 at 3:53 AM


Visibility: 10 mi

Pressure: 30.16 "Hg

Humidity: 87%

Dew Point: 53 °F

Location of BellinghamLocation

Past Weather in Bellingham — Graph

°F

Bellingham Temperature Yesterday

Maximum temperature yesterday: 76 °F (at 2:53 PM)
Minimum temperature yesterday: 56 °F (at 5:53 AM)
Average temperature yesterday: 66 °F

High & Low Weather Summary for the Past Weeks

 TemperatureHumidityPressure
High76 °F (Jun 26, 4:53 PM)97% (Jun 17, 3:53 AM)30.43 "Hg (Jun 17, 3:53 AM)
Low43 °F (Jun 17, 3:53 AM)38% (Jun 17, 12:53 PM)29.89 "Hg (Jun 14, 3:53 AM)
Average59 °F73%30.12 "Hg
* Reported Jun 13 2:53 AM — Jun 28 2:53 AM, Bellingham, Weather by CustomWeather, © 2016

Note: Actual official high and low records may vary slightly from our data, if they occured in-between our weather recording intervals... More about our weather records

Advertising

Bellingham Weather History for the Previous 24 Hours

Scroll right to see more
 ConditionsComfort  
Time TempWeatherWind HumidityBarometerVisibility
2:53 AM
Tue, Jun 28
58 °FClear.9 mph84%30.16 "Hg10 mi
1:53 AM59 °FClear.9 mph84%30.15 "Hg10 mi
12:53 AM61 °FClear.9 mph78%30.15 "Hg10 mi
11:53 PM
Mon, Jun 27
62 °FClear.9 mph78%30.13 "Hg10 mi
10:53 PM63 °FClear.13 mph73%30.13 "Hg10 mi
9:53 PM65 °FSunny.9 mph73%30.12 "Hg10 mi
8:53 PM66 °FSunny.8 mph68%30.11 "Hg10 mi
7:53 PM72 °FSunny.10 mph59%30.11 "Hg10 mi
6:53 PM74 °FSunny.8 mph50%30.10 "Hg10 mi
5:53 PM73 °FSunny.9 mph55%30.12 "Hg10 mi
4:53 PM75 °FSunny.7 mph58%30.13 "Hg10 mi
3:53 PM76 °FSunny.6 mph58%30.14 "Hg10 mi
2:53 PM76 °FSunny.6 mph60%30.14 "Hg10 mi
1:53 PM74 °FScattered clouds.8 mph56%30.14 "Hg10 mi
12:53 PM75 °FSunny.7 mph62%30.15 "Hg10 mi
11:53 AM71 °FSunny.7 mph68%30.16 "Hg10 mi
10:53 AM70 °FSunny.6 mph68%30.16 "Hg10 mi
9:53 AM68 °FSunny.3 mph70%30.16 "Hg10 mi
8:53 AM65 °FSunny.3 mph76%30.16 "Hg10 mi
7:53 AM63 °FSunny.5 mph78%30.16 "Hg10 mi
6:53 AM62 °FScattered clouds.5 mph83%30.15 "Hg10 mi
5:53 AM56 °FClear.No wind90%30.14 "Hg10 mi
4:53 AM57 °FPassing clouds.No wind93%30.13 "Hg10 mi
Weather by CustomWeather, © 2016

See weather overviewHow to use our weather pages